| time (UTC) | temp F | wind direction | speed MPH | gust MPH | rain 1hr in | rain 24hr in | rain mn in | humidity % | barometer mb |
| 20260901150033 | 66 | 288 | 0.0 | 0.0 | 0.28 | 0.56 | 0.56 | 94 | 1015.6 |
| 20260901145533 | 66 | 314 | 0.0 | 0.0 | 0.39 | 0.56 | 0.56 | 94 | 1015.7 |
| 20260901145030 | 66 | 316 | 0.0 | 0.0 | 0.39 | 0.55 | 0.55 | 94 | 1015.8 |
| 20260901144533 | 66 | 333 | 0.0 | 0.0 | 0.40 | 0.54 | 0.54 | 94 | 1015.7 |
| 20260901144032 | 66 | 336 | 0.0 | 0.0 | 0.40 | 0.53 | 0.53 | 94 | 1015.6 |
| 20260901143529 | 66 | 301 | 0.0 | 0.0 | 0.38 | 0.51 | 0.51 | 94 | 1015.6 |
| 20260901143029 | 67 | 324 | 0.0 | 0.0 | 0.37 | 0.49 | 0.49 | 93 | 1015.8 |
| 20260901142528 | 67 | 324 | 0.0 | 1.0 | 0.33 | 0.45 | 0.45 | 93 | 1016.0 |
| 20260901142028 | 67 | 334 | 0.0 | 2.0 | 0.32 | 0.43 | 0.43 | 93 | 1015.9 |
| 20260901141533 | 68 | 221 | 0.0 | 2.0 | 0.28 | 0.40 | 0.40 | 94 | 1015.8 |
| 20260901141024 | 68 | 220 | 0.0 | 1.0 | 0.25 | 0.35 | 0.35 | 93 | 1015.9 |
| 20260901140524 | 68 | 220 | 0.0 | 1.0 | 0.22 | 0.31 | 0.31 | 92 | 1016.3 |
| 20260901140024 | 69 | 308 | 0.0 | 0.0 | 0.18 | 0.26 | 0.26 | 94 | 1016.2 |
| 20260901135525 | 69 | 308 | 0.0 | 0.0 | 0.08 | 0.16 | 0.16 | 94 | 1016.0 |
| 20260901135022 | 69 | 308 | 0.0 | 0.0 | 0.10 | 0.15 | 0.15 | 94 | 1015.9 |
| 20260901134523 | 69 | 308 | 0.0 | 1.0 | 0.11 | 0.14 | 0.14 | 94 | 1015.6 |
| 20260901134022 | 69 | 308 | 0.0 | 1.0 | 0.10 | 0.13 | 0.13 | 94 | 1015.5 |
| 20260901133524 | 69 | 303 | 0.0 | 0.0 | 0.12 | 0.13 | 0.13 | 94 | 1015.4 |
| 20260901133022 | 69 | 303 | 0.0 | 0.0 | 0.12 | 0.12 | 0.12 | 94 | 1015.4 |
| 20260901132522 | 69 | 303 | 0.0 | 0.0 | 0.12 | 0.12 | 0.12 | 94 | 1015.4 |
| 20260901132022 | 69 | 302 | 0.0 | 0.0 | 0.11 | 0.11 | 0.11 | 94 | 1015.4 |
| 20260901131523 | 69 | 303 | 0.0 | 0.0 | 0.10 | 0.10 | 0.10 | 94 | 1015.5 |
| 20260901131022 | 69 | 303 | 0.0 | 0.0 | 0.10 | 0.10 | 0.10 | 93 | 1015.4 |
| 20260901130523 | 69 | 289 | 0.0 | 0.0 | 0.09 | 0.09 | 0.09 | 93 | 1015.4 |
| 20260901130021 | 70 | 289 | 0.0 | 0.0 | 0.08 | 0.08 | 0.08 | 92 | 1015.4 |
| 20260901125520 | 70 | 289 | 0.0 | 0.0 | 0.07 | 0.07 | 0.07 | 92 | 1015.5 |
| 20260901125020 | 70 | 289 | 0.0 | 0.0 | 0.05 | 0.05 | 0.05 | 92 | 1015.4 |
| 20260901124520 | 70 | 289 | 0.0 | 0.0 | 0.03 | 0.03 | 0.03 | 91 | 1015.5 |
| 20260901124019 | 70 | 289 | 0.0 | 0.0 | 0.02 | 0.02 | 0.02 | 91 | 1015.5 |
| 20260901123519 | 70 | 289 | 0.0 | 0.0 | 0.01 | 0.01 | 0.01 | 90 | 1015.5 |
| 20260901123030 | 70 | 289 | 0.0 | 0.0 | 0.00 | 0.00 | 0.00 | 90 | 1015.5 |
| 20260901122519 | 70 | 289 | 0.0 | 0.0 | 0.00 | 0.00 | 0.00 | 89 | 1015.5 |
| 20260901122017 | 70 | 289 | 0.0 | 0.0 | 0.00 | 0.00 | 0.00 | 90 | 1015.5 |
| 20260901121519 | 70 | 289 | 0.0 | 0.0 | 0.00 | 0.00 | 0.00 | 89 | 1015.4 |
| 20260901121018 | 70 | 289 | 0.0 | 0.0 | 0.00 | 0.00 | 0.00 | 89 | 1015.4 |
| 20260901120518 | 70 | 197 | 0.0 | 0.0 | 0.00 | 0.00 | 0.00 | 89 | 1015.4 |
| 20260901120117 | 70 | 197 | 0.0 | 0.0 | 0.00 | 0.00 | 0.00 | 89 | 1015.5 |
| 20260901115517 | 70 | 197 | 0.0 | 0.0 | 0.00 | 0.00 | 0.00 | 89 | 1015.4 |
| 20260901115017 | 70 | 197 | 0.0 | 0.0 | 0.00 | 0.00 | 0.00 | 90 | 1015.4 |
| 20260901114515 | 70 | 197 | 0.0 | 0.0 | 0.00 | 0.00 | 0.00 | 90 | 1015.5 |
| 20260901114016 | 70 | 197 | 0.0 | 0.0 | 0.00 | 0.00 | 0.00 | 90 | 1015.5 |
| 20260901113516 | 70 | 197 | 0.0 | 0.0 | 0.00 | 0.00 | 0.00 | 91 | 1015.5 |
| 20260901113016 | 70 | 197 | 0.0 | 0.0 | 0.00 | 0.00 | 0.00 | 91 | 1015.5 |
| 20260901112514 | 70 | 197 | 0.0 | 0.0 | 0.00 | 0.00 | 0.00 | 91 | 1015.5 |
| 20260901112014 | 70 | 197 | 0.0 | 0.0 | 0.00 | 0.00 | 0.00 | 91 | 1015.4 |
| 20260901111513 | 69 | 197 | 0.0 | 0.0 | 0.00 | 0.00 | 0.00 | 91 | 1015.4 |
| 20260901111015 | 69 | 197 | 0.0 | 0.0 | 0.00 | 0.00 | 0.00 | 91 | 1015.4 |
| 20260901110512 | 69 | 197 | 0.0 | 0.0 | 0.00 | 0.00 | 0.00 | 91 | 1015.3 |
| 20260901110012 | 69 | 197 | 0.0 | 0.0 | 0.00 | 0.00 | 0.00 | 91 | 1015.2 |
| 20260901105518 | 69 | 197 | 0.0 | 0.0 | 0.00 | 0.00 | 0.00 | 91 | 1015.3 |
| 20260901105011 | 69 | 197 | 0.0 | 0.0 | 0.00 | 0.00 | 0.00 | 91 | 1015.3 |
| 20260901104611 | 69 | 197 | 0.0 | 0.0 | 0.00 | 0.00 | 0.00 | 91 | 1015.2 |
| 20260901104012 | 69 | 197 | 0.0 | 0.0 | 0.00 | 0.00 | 0.00 | 91 | 1015.2 |
| 20260901103510 | 69 | 197 | 0.0 | 0.0 | 0.00 | 0.00 | 0.00 | 91 | 1015.1 |
| 20260901103011 | 69 | 197 | 0.0 | 0.0 | 0.00 | 0.00 | 0.00 | 91 | 1015.1 |
| 20260901102511 | 69 | 197 | 0.0 | 0.0 | 0.00 | 0.00 | 0.00 | 91 | 1015.1 |
| 20260901102011 | 69 | 197 | 0.0 | 0.0 | 0.00 | 0.00 | 0.00 | 91 | 1015.1 |
| 20260901101513 | 69 | 197 | 0.0 | 0.0 | 0.00 | 0.00 | 0.00 | 91 | 1015.1 |
| 20260901101010 | 69 | 197 | 0.0 | 0.0 | 0.00 | 0.00 | 0.00 | 90 | 1015.1 |
| 20260901100510 | 69 | 197 | 0.0 | 0.0 | 0.00 | 0.00 | 0.00 | 90 | 1015.0 |
| 20260901100010 | 69 | 197 | 0.0 | 0.0 | 0.00 | 0.00 | 0.00 | 90 | 1015.1 |
| 20260901095509 | 69 | 197 | 0.0 | 0.0 | 0.00 | 0.00 | 0.00 | 90 | 1015.0 |
| 20260901095009 | 69 | 197 | 0.0 | 0.0 | 0.00 | 0.00 | 0.00 | 90 | 1015.0 |
| 20260901094509 | 69 | 197 | 0.0 | 0.0 | 0.00 | 0.00 | 0.00 | 90 | 1015.0 |
| 20260901094008 | 69 | 197 | 0.0 | 0.0 | 0.00 | 0.00 | 0.00 | 90 | 1015.0 |
| 20260901093510 | 69 | 197 | 0.0 | 0.0 | 0.00 | 0.00 | 0.00 | 90 | 1015.0 |
| 20260901093009 | 69 | 197 | 0.0 | 0.0 | 0.00 | 0.00 | 0.00 | 90 | 1015.1 |
| 20260901092508 | 69 | 197 | 0.0 | 0.0 | 0.00 | 0.00 | 0.00 | 89 | 1015.1 |
| 20260901092008 | 68 | 197 | 0.0 | 0.0 | 0.00 | 0.00 | 0.00 | 89 | 1015.0 |
| 20260901091507 | 68 | 197 | 0.0 | 0.0 | 0.00 | 0.00 | 0.00 | 89 | 1015.0 |
| 20260901091007 | 68 | 197 | 0.0 | 0.0 | 0.00 | 0.00 | 0.00 | 89 | 1015.0 |
| 20260901090506 | 68 | 197 | 0.0 | 0.0 | 0.00 | 0.00 | 0.00 | 89 | 1014.9 |
| 20260901090009 | 68 | 197 | 0.0 | 0.0 | 0.00 | 0.00 | 0.00 | 89 | 1014.9 |
| 20260901085505 | 68 | 197 | 0.0 | 0.0 | 0.00 | 0.00 | 0.00 | 89 | 1014.9 |
| 20260901085006 | 69 | 197 | 0.0 | 0.0 | 0.00 | 0.00 | 0.00 | 89 | 1015.0 |
| 20260901084504 | 69 | 197 | 0.0 | 0.0 | 0.00 | 0.00 | 0.00 | 89 | 1015.2 |
| 20260901084004 | 69 | 197 | 0.0 | 0.0 | 0.00 | 0.00 | 0.00 | 89 | 1015.3 |
| 20260901083502 | 69 | 197 | 0.0 | 0.0 | 0.00 | 0.00 | 0.00 | 89 | 1015.4 |
| 20260901083002 | 69 | 197 | 0.0 | 0.0 | 0.00 | 0.00 | 0.00 | 89 | 1015.6 |
| 20260901082501 | 69 | 197 | 0.0 | 0.0 | 0.00 | 0.00 | 0.00 | 88 | 1015.8 |
| 20260901082100 | 69 | 197 | 0.0 | 0.0 | 0.00 | 0.00 | 0.00 | 88 | 1015.9 |
| 20260901081559 | 69 | 197 | 0.0 | 0.0 | 0.00 | 0.00 | 0.00 | 88 | 1015.9 |
| 20260901081059 | 69 | 197 | 0.0 | 0.0 | 0.00 | 0.00 | 0.00 | 88 | 1015.9 |
| 20260901080558 | 69 | 197 | 0.0 | 0.0 | 0.00 | 0.00 | 0.00 | 88 | 1015.9 |
| 20260901080111 | 69 | 197 | 0.0 | 0.0 | 0.00 | 0.00 | 0.00 | 88 | 1015.9 |
| 20260901075558 | 69 | 197 | 0.0 | 0.0 | 0.00 | 0.00 | 0.00 | 88 | 1015.8 |
| 20260901075059 | 69 | 197 | 0.0 | 0.0 | 0.00 | 0.00 | 0.00 | 88 | 1015.8 |
| 20260901074616 | 69 | 197 | 0.0 | 0.0 | 0.00 | 0.00 | 0.00 | 88 | 1015.8 |
| 20260901074056 | 69 | 197 | 0.0 | 0.0 | 0.00 | 0.00 | 0.00 | 88 | 1015.9 |
| 20260901073556 | 69 | 197 | 0.0 | 0.0 | 0.00 | 0.00 | 0.00 | 87 | 1015.9 |
| 20260901073054 | 69 | 197 | 0.0 | 0.0 | 0.00 | 0.00 | 0.00 | 88 | 1015.9 |
| 20260901072556 | 69 | 197 | 0.0 | 0.0 | 0.00 | 0.00 | 0.00 | 88 | 1015.8 |
| 20260901072054 | 69 | 197 | 0.0 | 0.0 | 0.00 | 0.00 | 0.00 | 87 | 1015.6 |
| 20260901071553 | 69 | 197 | 0.0 | 0.0 | 0.00 | 0.00 | 0.00 | 87 | 1015.6 |
| 20260901071051 | 69 | 197 | 0.0 | 0.0 | 0.00 | 0.00 | 0.00 | 87 | 1015.6 |
| 20260901070551 | 69 | 197 | 0.0 | 0.0 | 0.00 | 0.00 | 0.00 | 87 | 1015.7 |
| 20260901070049 | 69 | 197 | 0.0 | 0.0 | 0.00 | 0.00 | 0.00 | 87 | 1015.7 |
| 20260901065549 | 69 | 197 | 0.0 | 0.0 | 0.00 | 0.00 | 0.00 | 87 | 1015.6 |
| 20260901065048 | 69 | 197 | 0.0 | 0.0 | 0.00 | 0.00 | 0.00 | 87 | 1015.6 |
| 20260901064547 | 69 | 197 | 0.0 | 0.0 | 0.00 | 0.00 | 0.00 | 86 | 1015.9 |
| 20260901064045 | 69 | 197 | 0.0 | 0.0 | 0.00 | 0.00 | 0.00 | 86 | 1016.0 |
| 20260901063543 | 69 | 197 | 0.0 | 0.0 | 0.00 | 0.00 | 0.00 | 86 | 1016.1 |
| 20260901063049 | 69 | 197 | 0.0 | 0.0 | 0.00 | 0.00 | 0.00 | 86 | 1016.1 |
| 20260901062542 | 69 | 197 | 0.0 | 0.0 | 0.00 | 0.00 | 0.00 | 86 | 1016.2 |
| 20260901062041 | 69 | 197 | 0.0 | 0.0 | 0.00 | 0.00 | 0.00 | 86 | 1016.3 |
| 20260901061539 | 69 | 197 | 0.0 | 0.0 | 0.00 | 0.00 | 0.00 | 86 | 1016.2 |
| 20260901061037 | 69 | 197 | 0.0 | 0.0 | 0.00 | 0.00 | 0.00 | 86 | 1016.2 |
| 20260901060537 | 69 | 197 | 0.0 | 0.0 | 0.00 | 0.00 | 0.00 | 86 | 1016.1 |
| 20260901060041 | 69 | 197 | 0.0 | 0.0 | 0.00 | 0.00 | 0.00 | 86 | 1016.0 |
| 20260901055534 | 69 | 197 | 0.0 | 0.0 | 0.00 | 0.00 | 0.00 | 86 | 1016.0 |
| 20260901055033 | 69 | 197 | 0.0 | 0.0 | 0.00 | 0.00 | 0.00 | 86 | 1016.1 |
| 20260901054531 | 69 | 196 | 0.0 | 0.0 | 0.00 | 0.00 | 0.00 | 86 | 1016.0 |
| 20260901054029 | 69 | 197 | 0.0 | 0.0 | 0.00 | 0.00 | 0.00 | 86 | 1016.0 |
| 20260901053528 | 69 | 197 | 0.0 | 0.0 | 0.00 | 0.00 | 0.00 | 86 | 1016.1 |
| 20260901053029 | 69 | 197 | 0.0 | 0.0 | 0.00 | 0.00 | 0.00 | 86 | 1016.1 |
| 20260901052525 | 69 | 197 | 0.0 | 0.0 | 0.00 | 0.00 | 0.00 | 86 | 1016.0 |
| 20260901052023 | 69 | 197 | 0.0 | 0.0 | 0.00 | 0.00 | 0.00 | 86 | 1016.0 |
| 20260901051522 | 69 | 197 | 0.0 | 0.0 | 0.00 | 0.00 | 0.00 | 86 | 1016.0 |
| 20260901051020 | 69 | 197 | 0.0 | 0.0 | 0.00 | 0.00 | 0.00 | 86 | 1016.1 |
| 20260901050520 | 69 | 197 | 0.0 | 0.0 | 0.00 | 0.00 | 0.00 | 86 | 1016.3 |
| 20260901050019 | 69 | 197 | 0.0 | 0.0 | 0.00 | 0.00 | 0.00 | 86 | 1016.3 |
| 20260901045519 | 69 | 197 | 0.0 | 0.0 | 0.00 | 0.00 | 0.00 | 86 | 1016.3 |
| 20260901045018 | 69 | 197 | 0.0 | 0.0 | 0.00 | 0.00 | 0.00 | 86 | 1016.3 |
| 20260901044518 | 69 | 197 | 0.0 | 0.0 | 0.00 | 0.00 | 0.00 | 86 | 1016.3 |
| 20260901044018 | 69 | 197 | 0.0 | 0.0 | 0.00 | 0.00 | 0.00 | 86 | 1016.3 |
| 20260901043518 | 69 | 197 | 0.0 | 0.0 | 0.00 | 0.00 | 0.00 | 86 | 1016.3 |
| 20260901043017 | 69 | 197 | 0.0 | 0.0 | 0.00 | 0.00 | 0.00 | 86 | 1016.4 |
| 20260901042516 | 69 | 197 | 0.0 | 0.0 | 0.00 | 0.00 | 0.00 | 86 | 1016.4 |
| 20260901042016 | 69 | 197 | 0.0 | 0.0 | 0.00 | 0.00 | 0.00 | 86 | 1016.4 |
| 20260901041515 | 69 | 197 | 0.0 | 0.0 | 0.00 | 0.00 | 0.00 | 86 | 1016.4 |
| 20260901041014 | 69 | 197 | 0.0 | 0.0 | 0.00 | 0.00 | 0.00 | 86 | 1016.5 |
| 20260901040514 | 69 | 197 | 0.0 | 0.0 | 0.00 | 0.00 | 0.00 | 86 | 1016.5 |
| 20260901040013 | 69 | 197 | 0.0 | 0.0 | 0.00 | 0.56 | 0.00 | 85 | 1016.6 |
| 20260901035512 | 69 | 197 | 0.0 | 0.0 | 0.00 | 0.56 | 0.00 | 86 | 1016.7 |
| 20260901035012 | 69 | 195 | 0.0 | 0.0 | 0.00 | 0.56 | 0.00 | 86 | 1016.7 |
| 20260901034510 | 69 | 195 | 0.0 | 0.0 | 0.00 | 0.56 | 0.00 | 86 | 1016.8 |
| 20260901034009 | 69 | 195 | 0.0 | 0.0 | 0.00 | 0.56 | 0.00 | 85 | 1016.7 |
| 20260901033512 | 69 | 195 | 0.0 | 0.0 | 0.00 | 0.56 | 0.00 | 86 | 1016.7 |
| 20260901033008 | 69 | 195 | 0.0 | 0.0 | 0.00 | 0.56 | 0.00 | 85 | 1016.7 |
| 20260901032509 | 69 | 195 | 0.0 | 0.0 | 0.00 | 0.56 | 0.00 | 85 | 1016.7 |
| 20260901032009 | 69 | 195 | 0.0 | 0.0 | 0.00 | 0.56 | 0.00 | 85 | 1016.6 |
| 20260901031509 | 69 | 195 | 0.0 | 0.0 | 0.00 | 0.56 | 0.00 | 84 | 1016.6 |
| 20260901031010 | 69 | 195 | 0.0 | 0.0 | 0.00 | 0.56 | 0.00 | 84 | 1016.6 |
| 20260901030508 | 69 | 195 | 0.0 | 0.0 | 0.00 | 0.56 | 0.00 | 84 | 1016.5 |
| 20260901030007 | 69 | 195 | 0.0 | 0.0 | 0.00 | 0.65 | 0.00 | 84 | 1016.5 |
| 20260901025508 | 69 | 195 | 0.0 | 0.0 | 0.00 | 0.65 | 0.00 | 84 | 1016.5 |
| 20260901025007 | 69 | 195 | 0.0 | 0.0 | 0.00 | 0.65 | 0.00 | 84 | 1016.6 |
| 20260901024508 | 69 | 195 | 0.0 | 0.0 | 0.00 | 0.65 | 0.00 | 84 | 1016.5 |
| 20260901024008 | 69 | 195 | 0.0 | 0.0 | 0.00 | 0.65 | 0.00 | 84 | 1016.5 |
| 20260901023511 | 69 | 195 | 0.0 | 0.0 | 0.00 | 0.65 | 0.00 | 84 | 1016.6 |
| 20260901023007 | 69 | 195 | 0.0 | 0.0 | 0.00 | 0.65 | 0.00 | 84 | 1016.6 |
| 20260901022507 | 69 | 195 | 0.0 | 0.0 | 0.00 | 0.65 | 0.00 | 84 | 1016.6 |
| 20260901022007 | 69 | 195 | 0.0 | 0.0 | 0.00 | 0.65 | 0.00 | 84 | 1016.7 |
| 20260901021510 | 69 | 195 | 0.0 | 0.0 | 0.00 | 0.65 | 0.00 | 84 | 1016.7 |
| 20260901021007 | 69 | 195 | 0.0 | 0.0 | 0.00 | 0.65 | 0.00 | 84 | 1016.8 |
| 20260901020507 | 69 | 195 | 0.0 | 0.0 | 0.00 | 0.65 | 0.00 | 84 | 1016.8 |
| 20260901020007 | 69 | 195 | 0.0 | 0.0 | 0.00 | 0.65 | 0.00 | 84 | 1016.8 |
| 20260901015507 | 69 | 195 | 0.0 | 0.0 | 0.00 | 0.65 | 0.00 | 85 | 1016.9 |
| 20260901015008 | 69 | 195 | 0.0 | 0.0 | 0.00 | 0.65 | 0.00 | 85 | 1017.0 |
| 20260901014506 | 69 | 195 | 0.0 | 0.0 | 0.00 | 0.65 | 0.00 | 85 | 1017.0 |
| 20260901014006 | 69 | 195 | 0.0 | 0.0 | 0.00 | 0.65 | 0.00 | 85 | 1017.0 |
| 20260901013506 | 69 | 195 | 0.0 | 0.0 | 0.00 | 0.65 | 0.00 | 85 | 1016.9 |
| 20260901013008 | 69 | 193 | 0.0 | 0.0 | 0.00 | 0.65 | 0.00 | 85 | 1017.0 |
| 20260901012508 | 69 | 192 | 0.0 | 0.0 | 0.00 | 0.65 | 0.00 | 84 | 1017.0 |
| 20260901012011 | 70 | 191 | 0.0 | 0.0 | 0.00 | 0.65 | 0.00 | 85 | 1016.9 |
| 20260901011505 | 70 | 191 | 0.0 | 0.0 | 0.00 | 0.65 | 0.00 | 85 | 1017.0 |
| 20260901011004 | 70 | 191 | 0.0 | 0.0 | 0.00 | 0.65 | 0.00 | 85 | 1017.0 |
| 20260901010504 | 70 | 191 | 0.0 | 0.0 | 0.00 | 0.65 | 0.00 | 84 | 1017.1 |
| 20260901010005 | 70 | 190 | 0.0 | 0.0 | 0.00 | 0.65 | 0.00 | 84 | 1017.0 |
| 20260901005507 | 70 | 190 | 0.0 | 2.0 | 0.00 | 0.65 | 0.00 | 84 | 1017.0 |
| 20260901005004 | 70 | 190 | 0.0 | 4.0 | 0.00 | 0.65 | 0.00 | 84 | 1017.0 |
| 20260901004503 | 70 | 187 | 0.0 | 4.0 | 0.00 | 0.65 | 0.00 | 84 | 1017.0 |
| 20260901004004 | 70 | 189 | 0.0 | 1.0 | 0.00 | 0.65 | 0.00 | 84 | 1016.9 |
| 20260901003503 | 70 | 196 | 0.0 | 1.0 | 0.00 | 0.65 | 0.00 | 84 | 1016.8 |
| 20260901003010 | 70 | 202 | 0.0 | 0.0 | 0.00 | 0.65 | 0.00 | 84 | 1016.8 |
| 20260901002503 | 70 | 202 | 0.0 | 2.0 | 0.00 | 0.65 | 0.00 | 84 | 1016.8 |
| 20260901002005 | 70 | 203 | 0.0 | 2.0 | 0.00 | 0.65 | 0.00 | 84 | 1016.9 |
| 20260901001502 | 70 | 197 | 0.0 | 0.0 | 0.00 | 0.65 | 0.00 | 84 | 1016.9 |
| 20260901001001 | 70 | 195 | 0.0 | 0.0 | 0.00 | 0.65 | 0.00 | 84 | 1016.9 |
| 20260901000501 | 70 | 201 | 0.0 | 1.0 | 0.00 | 0.65 | 0.00 | 83 | 1016.8 |
| 20260901000002 | 70 | 202 | 0.0 | 2.0 | 0.00 | 0.65 | 0.00 | 83 | 1016.9 |
| 20260831235502 | 70 | 195 | 0.0 | 2.0 | 0.00 | 0.65 | 0.00 | 83 | 1017.0 |
| 20260831235002 | 70 | 200 | 0.0 | 2.0 | 0.00 | 0.65 | 0.00 | 82 | 1016.9 |
| 20260831234502 | 70 | 204 | 0.0 | 3.0 | 0.00 | 0.65 | 0.00 | 82 | 1016.9 |
| 20260831234000 | 70 | 197 | 0.0 | 3.0 | 0.00 | 0.65 | 0.00 | 82 | 1016.9 |
| 20260831233502 | 70 | 202 | 0.0 | 1.0 | 0.00 | 0.65 | 0.00 | 82 | 1016.9 |
| 20260831233002 | 71 | 210 | 0.0 | 1.0 | 0.00 | 0.65 | 0.00 | 82 | 1016.9 |
| 20260831232501 | 71 | 160 | 0.0 | 1.0 | 0.00 | 0.65 | 0.00 | 82 | 1016.8 |
| 20260831232101 | 71 | 195 | 0.0 | 1.0 | 0.00 | 0.65 | 0.00 | 82 | 1016.8 |
| 20260831231600 | 71 | 195 | 0.0 | 2.0 | 0.00 | 0.65 | 0.00 | 81 | 1016.9 |
| 20260831231100 | 71 | 200 | 0.0 | 2.0 | 0.00 | 0.65 | 0.00 | 81 | 1016.9 |
| 20260831230602 | 71 | 190 | 0.0 | 2.0 | 0.00 | 0.65 | 0.00 | 81 | 1016.9 |
| 20260831230113 | 71 | 179 | 0.0 | 4.0 | 0.00 | 0.65 | 0.00 | 81 | 1016.9 |
| 20260831225601 | 71 | 207 | 0.0 | 4.0 | 0.00 | 0.65 | 0.00 | 81 | 1016.9 |
| 20260831225100 | 71 | 193 | 0.0 | 3.0 | 0.00 | 0.65 | 0.00 | 80 | 1016.9 |
| 20260831224559 | 71 | 197 | 0.0 | 1.0 | 0.00 | 0.65 | 0.00 | 80 | 1016.9 |
| 20260831224058 | 71 | 195 | 0.0 | 2.0 | 0.00 | 0.65 | 0.00 | 80 | 1017.0 |
| 20260831223558 | 72 | 38 | 0.0 | 2.0 | 0.00 | 0.65 | 0.00 | 79 | 1016.8 |
| 20260831223108 | 72 | 190 | 0.0 | 2.0 | 0.00 | 0.65 | 0.00 | 79 | 1016.9 |
| 20260831222557 | 72 | 211 | 0.0 | 2.0 | 0.00 | 0.65 | 0.00 | 80 | 1016.9 |
| 20260831222057 | 72 | 192 | 0.0 | 3.0 | 0.00 | 0.65 | 0.00 | 80 | 1016.8 |
| 20260831221559 | 72 | 197 | 0.0 | 3.0 | 0.00 | 0.65 | 0.00 | 79 | 1016.9 |
| 20260831221057 | 72 | 196 | 0.0 | 2.0 | 0.00 | 0.65 | 0.00 | 79 | 1016.9 |
| 20260831220556 | 72 | 171 | 0.0 | 1.0 | 0.00 | 0.65 | 0.00 | 79 | 1016.9 |
| 20260831220057 | 72 | 188 | 0.0 | 1.0 | 0.00 | 0.65 | 0.00 | 79 | 1017.0 |
| 20260831215556 | 73 | 171 | 0.0 | 1.0 | 0.00 | 0.65 | 0.00 | 79 | 1016.9 |
| 20260831215056 | 73 | 193 | 0.0 | 3.0 | 0.00 | 0.65 | 0.00 | 78 | 1017.0 |
| 20260831214608 | 73 | 199 | 0.0 | 3.0 | 0.00 | 0.65 | 0.00 | 77 | 1017.0 |
| 20260831214055 | 73 | 204 | 0.0 | 4.0 | 0.00 | 0.65 | 0.00 | 77 | 1017.0 |
| 20260831213555 | 73 | 205 | 0.0 | 4.0 | 0.00 | 0.65 | 0.00 | 76 | 1017.0 |
| 20260831213055 | 73 | 197 | 0.0 | 3.0 | 0.00 | 0.65 | 0.00 | 75 | 1017.1 |
| 20260831212555 | 73 | 199 | 0.0 | 2.0 | 0.00 | 0.65 | 0.00 | 75 | 1017.1 |
| 20260831212057 | 73 | 187 | 0.0 | 0.0 | 0.00 | 0.65 | 0.00 | 75 | 1017.1 |
| 20260831211554 | 74 | 206 | 0.0 | 0.0 | 0.00 | 0.65 | 0.00 | 75 | 1017.0 |
| 20260831211056 | 74 | 202 | 0.0 | 3.0 | 0.00 | 0.65 | 0.00 | 76 | 1017.2 |
| 20260831210557 | 74 | 198 | 0.0 | 3.0 | 0.00 | 0.65 | 0.00 | 74 | 1017.3 |
| 20260831210053 | 74 | 217 | 0.0 | 2.0 | 0.00 | 0.65 | 0.00 | 74 | 1017.1 |
| 20260831205555 | 74 | 212 | 0.0 | 3.0 | 0.00 | 0.65 | 0.00 | 74 | 1016.9 |
| 20260831205053 | 74 | 193 | 0.0 | 3.0 | 0.00 | 0.65 | 0.00 | 75 | 1017.0 |
| 20260831204553 | 74 | 197 | 0.0 | 2.0 | 0.00 | 0.65 | 0.00 | 75 | 1017.0 |
| 20260831204053 | 74 | 190 | 0.0 | 1.0 | 0.00 | 0.65 | 0.00 | 75 | 1016.9 |
| 20260831203552 | 74 | 204 | 0.0 | 3.0 | 0.00 | 0.65 | 0.00 | 74 | 1017.0 |
| 20260831203055 | 74 | 199 | 0.0 | 3.0 | 0.00 | 0.65 | 0.00 | 73 | 1016.9 |
| 20260831202552 | 75 | 207 | 0.0 | 3.0 | 0.00 | 0.65 | 0.00 | 72 | 1016.7 |
| 20260831202054 | 75 | 178 | 1.0 | 3.0 | 0.00 | 0.65 | 0.00 | 70 | 1016.7 |
| 20260831201551 | 76 | 344 | 0.0 | 3.0 | 0.00 | 0.65 | 0.00 | 69 | 1016.7 |
| 20260831201050 | 77 | 183 | 0.0 | 3.0 | 0.00 | 0.65 | 0.00 | 68 | 1016.9 |
| 20260831200550 | 77 | 195 | 0.0 | 4.0 | 0.00 | 0.65 | 0.00 | 69 | 1017.0 |
| 20260831195549 | 76 | 192 | 0.0 | 3.0 | 0.00 | 0.65 | 0.00 | 71 | 1017.0 |
| 20260831195049 | 76 | 205 | 0.0 | 4.0 | 0.00 | 0.65 | 0.00 | 71 | 1017.0 |
| 20260831194619 | 77 | 200 | 0.0 | 4.0 | 0.00 | 0.65 | 0.00 | 72 | 1017.0 |
| 20260831194049 | 77 | 177 | 1.0 | 3.0 | 0.00 | 0.65 | 0.00 | 71 | 1017.1 |
| 20260831193549 | 77 | 190 | 0.0 | 5.0 | 0.00 | 0.65 | 0.00 | 71 | 1017.0 |
| 20260831193053 | 78 | 188 | 0.0 | 5.0 | 0.00 | 0.65 | 0.00 | 66 | 1017.1 |
| 20260831192548 | 78 | 207 | 0.0 | 0.0 | 0.00 | 0.65 | 0.00 | 62 | 1017.1 |
| 20260831192048 | 78 | 185 | 0.0 | 0.0 | 0.00 | 0.65 | 0.00 | 62 | 1017.2 |
| 20260831191549 | 77 | 203 | 0.0 | 2.0 | 0.00 | 0.65 | 0.00 | 63 | 1017.2 |
| 20260831191052 | 77 | 203 | 0.0 | 2.0 | 0.00 | 0.65 | 0.00 | 63 | 1017.2 |
| 20260831190548 | 78 | 198 | 0.0 | 2.0 | 0.00 | 0.65 | 0.00 | 63 | 1017.2 |
| 20260831190055 | 78 | 202 | 0.0 | 0.0 | 0.00 | 0.65 | 0.00 | 64 | 1017.2 |
| 20260831185547 | 78 | 193 | 0.0 | 1.0 | 0.00 | 0.65 | 0.00 | 62 | 1017.2 |
| 20260831185047 | 78 | 209 | 0.0 | 2.0 | 0.00 | 0.65 | 0.00 | 63 | 1017.3 |
| 20260831184546 | 78 | 207 | 0.0 | 3.0 | 0.00 | 0.65 | 0.00 | 62 | 1017.4 |
| 20260831184048 | 78 | 189 | 1.0 | 3.0 | 0.00 | 0.65 | 0.00 | 61 | 1017.5 |
| 20260831183546 | 79 | 196 | 0.0 | 4.0 | 0.00 | 0.65 | 0.00 | 62 | 1017.4 |
| 20260831183054 | 79 | 209 | 0.0 | 7.0 | 0.00 | 0.65 | 0.00 | 62 | 1017.5 |
| 20260831182548 | 80 | 178 | 1.0 | 7.0 | 0.00 | 0.65 | 0.00 | 61 | 1017.5 |
| 20260831182049 | 80 | 187 | 2.0 | 6.0 | 0.00 | 0.65 | 0.00 | 61 | 1017.6 |
| 20260831181548 | 80 | 211 | 0.0 | 0.0 | 0.00 | 0.65 | 0.00 | 61 | 1017.6 |
| 20260831181044 | 81 | 215 | 0.0 | 3.0 | 0.00 | 0.65 | 0.00 | 59 | 1017.6 |
| 20260831180545 | 81 | 214 | 0.0 | 4.0 | 0.00 | 0.65 | 0.00 | 59 | 1017.5 |
| 20260831180055 | 82 | 179 | 0.0 | 4.0 | 0.00 | 0.65 | 0.00 | 58 | 1017.5 |
| 20260831175543 | 82 | 196 | 0.0 | 0.0 | 0.00 | 0.65 | 0.00 | 60 | 1017.6 |
| 20260831175044 | 82 | 185 | 0.0 | 0.0 | 0.00 | 0.65 | 0.00 | 58 | 1017.7 |
| 20260831174541 | 81 | 351 | 0.0 | 3.0 | 0.00 | 0.65 | 0.00 | 64 | 1017.8 |
| 20260831174041 | 81 | 354 | 0.0 | 3.0 | 0.00 | 0.65 | 0.00 | 59 | 1017.8 |
| 20260831173543 | 80 | 341 | 0.0 | 1.0 | 0.00 | 0.65 | 0.00 | 60 | 1017.8 |
| 20260831173038 | 80 | 203 | 0.0 | 1.0 | 0.00 | 0.65 | 0.00 | 61 | 1017.9 |
| 20260831172536 | 80 | 196 | 0.0 | 2.0 | 0.00 | 0.65 | 0.00 | 64 | 1017.8 |
| 20260831172035 | 79 | 356 | 0.0 | 2.0 | 0.00 | 0.65 | 0.00 | 61 | 1017.8 |
| 20260831171533 | 78 | 18 | 0.0 | 2.0 | 0.00 | 0.65 | 0.00 | 66 | 1017.8 |
| 20260831171032 | 78 | 235 | 0.0 | 2.0 | 0.00 | 0.65 | 0.00 | 63 | 1017.8 |
| 20260831170532 | 78 | 342 | 0.0 | 3.0 | 0.00 | 0.65 | 0.00 | 64 | 1017.8 |
| 20260831170039 | 77 | 2 | 0.0 | 3.0 | 0.00 | 0.65 | 0.00 | 65 | 1017.9 |
| 20260831165534 | 77 | 200 | 0.0 | 1.0 | 0.00 | 0.65 | 0.00 | 65 | 1018.0 |
| 20260831165031 | 77 | 201 | 0.0 | 1.0 | 0.00 | 0.65 | 0.00 | 63 | 1018.1 |
| 20260831164533 | 78 | 202 | 0.0 | 3.0 | 0.00 | 0.65 | 0.00 | 63 | 1018.2 |
| 20260831164033 | 77 | 344 | 0.0 | 3.0 | 0.00 | 0.65 | 0.00 | 65 | 1018.3 |
| 20260831163529 | 77 | 19 | 0.0 | 3.0 | 0.00 | 0.65 | 0.00 | 64 | 1018.3 |
| 20260831163028 | 77 | 244 | 0.0 | 2.0 | 0.00 | 0.65 | 0.00 | 65 | 1018.3 |
| 20260831162526 | 76 | 257 | 0.0 | 2.0 | 0.00 | 0.65 | 0.00 | 67 | 1018.3 |
| 20260831162027 | 76 | 199 | 0.0 | 3.0 | 0.00 | 0.65 | 0.00 | 68 | 1018.3 |
| 20260831161526 | 76 | 3 | 0.0 | 3.0 | 0.00 | 0.65 | 0.00 | 70 | 1018.4 |
| 20260831161024 | 76 | 29 | 0.0 | 1.0 | 0.00 | 0.65 | 0.00 | 69 | 1018.4 |
| 20260831160524 | 75 | 346 | 0.0 | 2.0 | 0.00 | 0.65 | 0.00 | 69 | 1018.5 |
| 20260831160026 | 75 | 346 | 0.0 | 3.0 | 0.00 | 0.65 | 0.00 | 68 | 1018.5 |
| 20260831155523 | 75 | 9 | 0.0 | 3.0 | 0.00 | 0.65 | 0.00 | 70 | 1018.5 |
| 20260831155021 | 75 | 216 | 0.0 | 1.0 | 0.00 | 0.65 | 0.00 | 71 | 1018.4 |
| 20260831154529 | 75 | 216 | 0.0 | 1.0 | 0.00 | 0.65 | 0.00 | 72 | 1018.5 |
| 20260831154020 | 74 | 336 | 0.0 | 3.0 | 0.00 | 0.65 | 0.00 | 73 | 1018.5 |
| 20260831153619 | 74 | 354 | 0.0 | 3.0 | 0.00 | 0.65 | 0.00 | 73 | 1018.6 |
| 20260831153020 | 74 | 351 | 0.0 | 3.0 | 0.00 | 0.65 | 0.00 | 73 | 1018.7 |
| 20260831152522 | 74 | 200 | 0.0 | 2.0 | 0.00 | 0.65 | 0.00 | 74 | 1018.7 |
| 20260831152017 | 73 | 353 | 0.0 | 1.0 | 0.00 | 0.65 | 0.00 | 75 | 1018.8 |
| 20260831151518 | 73 | 204 | 0.0 | 3.0 | 0.00 | 0.65 | 0.00 | 73 | 1018.8 |
| 20260831151015 | 73 | 200 | 0.0 | 3.0 | 0.00 | 0.65 | 0.00 | 75 | 1018.8 |
| 20260831150513 | 73 | 209 | 0.0 | 3.0 | 0.00 | 0.65 | 0.00 | 76 | 1018.7 |